EW3904 Weather Reports


Display with metric or nautical units.
time (UTC)temp
F
wind
direction
speed
MPH
gust
MPH
rain 1hr
in
rain 24hr
in
rain mn
in
humidity
%
barometer
mb
20260505164228 74 194 3.0 10.0 0.00 0.00 0.00 52 1016.2
20260505163228 73 232 4.0 8.0 0.00 0.00 0.00 52 1016.3
20260505160228 72 277 4.0 8.0 0.00 0.00 0.00 55 1016.7
20260505153228 71 169 4.0 6.0 0.00 0.00 0.00 59 1016.8
20260505150227 69 213 3.0 5.0 0.00 0.00 0.00 63 1016.8
20260505140227 65 195 4.0 7.0 0.00 0.00 0.00 68 1016.2
20260505130227 61 133 4.0 4.0 0.00 0.00 0.00 76 1015.5
20260505123227 57 38 1.0 1.0 0.00 0.00 0.00 82 1015.2
20260505122227 56 26 1.0 2.0 0.00 0.00 0.00 83 1015.2
20260505121227 56 309 0.0 0.0 0.00 0.00 0.00 83 1015.2
20260505120226 53 162 0.0 2.0 0.00 0.00 0.00 86 1015.0
20260505115226 53 163 0.0 2.0 0.00 0.00 0.00 87 1015.0
20260505114226 51 163 0.0 0.0 0.00 0.00 0.00 90 1014.9
20260505112226 49 163 0.0 0.0 0.00 0.00 0.00 93 1014.8
20260505110227 47 163 0.0 2.0 0.00 0.00 0.00 92 1014.7
20260505101225 47 122 0.0 0.0 0.00 0.00 0.00 91 1014.8
20260505100226 48 122 0.0 0.0 0.00 0.00 0.00 90 1014.9
20260505095226 48 122 0.0 0.0 0.00 0.00 0.00 90 1014.8
20260505094226 48 122 0.0 0.0 0.00 0.00 0.00 90 1014.8
20260505093226 49 122 0.0 0.0 0.00 0.00 0.00 90 1014.9
20260505092225 49 122 0.0 0.0 0.00 0.00 0.00 90 1015.0
20260505091226 49 122 0.0 0.0 0.00 0.00 0.00 90 1015.1
20260505090225 49 122 1.0 2.0 0.00 0.00 0.00 88 1015.2
20260505085229 50 133 0.0 2.0 0.00 0.00 0.00 86 1015.4
20260505084225 51 133 0.0 1.0 0.00 0.00 0.00 84 1015.3
20260505083225 50 130 0.0 1.0 0.00 0.00 0.00 87 1015.2
20260505082225 50 134 2.0 2.0 0.00 0.00 0.00 89 1015.1
20260505081225 50 181 0.0 2.0 0.00 0.00 0.00 88 1015.1
20260505075225 50 207 0.0 1.0 0.00 0.00 0.00 88 1014.9
20260505074225 50 207 0.0 0.0 0.00 0.00 0.00 89 1014.8
20260505073225 50 207 0.0 0.0 0.00 0.00 0.00 88 1014.8
20260505072224 50 207 0.0 0.0 0.00 0.00 0.00 88 1014.8
20260505071225 50 207 0.0 0.0 0.00 0.00 0.00 87 1014.8
20260505070225 51 207 0.0 0.0 0.00 0.00 0.00 85 1014.9
20260505065224 51 207 0.0 0.0 0.00 0.00 0.00 84 1014.8
20260505064225 51 207 0.0 0.0 0.00 0.00 0.00 84 1014.7
20260505063225 51 207 0.0 0.0 0.00 0.00 0.00 84 1014.8
20260505062224 51 207 0.0 0.0 0.00 0.00 0.00 84 1014.8
20260505061224 52 207 0.0 0.0 0.00 0.00 0.00 83 1014.9
20260505060224 52 207 0.0 0.0 0.00 0.00 0.00 82 1014.8
20260505055224 52 207 0.0 0.0 0.00 0.00 0.00 82 1015.0
20260505054225 52 207 0.0 0.0 0.00 0.00 0.00 83 1015.0
20260505053224 52 207 0.0 0.0 0.00 0.00 0.00 81 1015.1
20260505052224 53 207 0.0 0.0 0.00 0.00 0.00 80 1015.0
20260505041223 55 207 0.0 0.0 0.00 0.00 0.00 77 1015.0
20260505040223 56 207 0.0 0.0 0.00 0.00 0.00 77 1015.2
20260505035223 56 207 0.0 0.0 0.00 0.00 0.00 76 1015.2
20260505034223 56 207 0.0 1.0 0.00 0.00 0.00 76 1015.2
20260505032223 56 207 0.0 2.0 0.00 0.00 0.00 77 1015.3
20260505031223 57 207 0.0 0.0 0.00 0.00 0.00 76 1015.4
20260505025223 58 207 0.0 0.0 0.00 0.00 0.00 75 1015.4
20260505024223 58 207 0.0 0.0 0.00 0.00 0.00 74 1015.3
20260505023223 58 207 0.0 0.0 0.00 0.00 0.00 73 1015.3
20260505022222 59 207 0.0 0.0 0.00 0.00 0.00 71 1015.3
20260505021223 60 207 0.0 0.0 0.00 0.00 0.00 70 1015.3
20260505020222 60 207 0.0 0.0 0.00 0.00 0.00 69 1015.3
20260505015223 61 207 0.0 0.0 0.00 0.00 0.00 67 1015.0
20260505014223 62 207 0.0 1.0 0.00 0.00 0.00 66 1015.1
20260505013223 63 213 1.0 2.0 0.00 0.00 0.00 63 1014.9
20260505011222 65 213 0.0 3.0 0.00 0.00 0.00 59 1014.8
20260505010222 65 171 0.0 0.0 0.00 0.00 0.00 60 1014.6
20260505005223 65 171 0.0 0.0 0.00 0.00 0.00 58 1014.5
20260505004222 66 171 0.0 0.0 0.00 0.00 0.00 58 1014.2
20260505003222 67 171 0.0 0.0 0.00 0.00 0.00 57 1014.3
20260505002222 69 171 0.0 0.0 0.00 0.00 0.00 53 1014.3
20260505000222 71 171 0.0 0.0 0.00 0.00 0.00 49 1014.3
20260504235222 72 171 0.0 0.0 0.00 0.00 0.00 47 1014.1
20260504234222 73 171 0.0 3.0 0.00 0.00 0.00 43 1014.2
20260504233222 75 194 0.0 4.0 0.00 0.00 0.00 37 1014.3
20260504232222 75 142 1.0 3.0 0.00 0.00 0.00 37 1014.3
20260504230222 76 198 3.0 5.0 0.00 0.00 0.00 38 1014.3
20260504225222 76 232 4.0 6.0 0.00 0.00 0.00 34 1014.0
20260504224222 76 160 2.0 9.0 0.00 0.00 0.00 34 1014.1
20260504223222 76 186 3.0 5.0 0.00 0.00 0.00 36 1014.2
20260504222222 76 185 2.0 5.0 0.00 0.00 0.00 35 1014.3
20260504220222 76 142 2.0 7.0 0.00 0.00 0.00 33 1014.1
20260504215221 76 217 2.0 4.0 0.00 0.00 0.00 36 1014.0
20260504213221 77 252 3.0 7.0 0.00 0.00 0.00 34 1014.0
20260504212221 76 214 4.0 5.0 0.00 0.00 0.00 32 1013.9
20260504211221 76 196 3.0 4.0 0.00 0.00 0.00 34 1013.9
20260504210221 77 186 2.0 8.0 0.00 0.00 0.00 32 1014.2
20260504203221 77 136 2.0 6.0 0.00 0.00 0.00 34 1014.5
20260504201224 76 240 2.0 6.0 0.00 0.00 0.00 35 1014.6
20260504200221 77 174 4.0 7.0 0.00 0.00 0.00 34 1014.7
20260504195221 76 142 3.0 9.0 0.00 0.00 0.00 33 1014.9
20260504194221 76 202 5.0 7.0 0.00 0.00 0.00 35 1015.2
20260504193221 76 182 0.0 5.0 0.00 0.00 0.00 35 1015.3
20260504192221 76 209 4.0 5.0 0.00 0.00 0.00 38 1015.4
20260504191221 75 158 3.0 6.0 0.00 0.00 0.00 35 1015.4
20260504190220 75 213 2.0 3.0 0.00 0.00 0.00 36 1015.5
20260504185220 75 268 4.0 8.0 0.00 0.00 0.00 35 1015.7
20260504183220 74 89 2.0 5.0 0.00 0.00 0.00 37 1016.0
20260504182220 74 226 4.0 6.0 0.00 0.00 0.00 36 1016.0
20260504181220 75 180 4.0 9.0 0.00 0.00 0.00 40 1016.3
20260504175220 74 146 3.0 7.0 0.00 0.00 0.00 38 1016.4
20260504173219 73 256 3.0 6.0 0.00 0.00 0.00 42 1016.7
20260504172219 73 273 4.0 10.0 0.00 0.00 0.00 42 1016.7
20260504170219 72 5 1.0 4.0 0.00 0.00 0.00 39 1016.7